TimeCST,TemperatureF,Dew PointF,Humidity,Sea Level PressureIn,VisibilityMPH,Wind Direction,Wind SpeedMPH,Gust SpeedMPH,PrecipitationIn,Events,Conditions,WindDirDegrees,DateUTC
12:15 AM,37.4,32.0,81,29.84,10.0,SSE,17.3,-,N/A,,Clear,150,2012-11-08 06:15:00
12:35 AM,37.4,32.0,81,29.83,10.0,SSE,17.3,23.0,N/A,,Clear,150,2012-11-08 06:35:00
12:55 AM,37.4,32.0,81,29.83,10.0,SSE,17.3,-,N/A,,Clear,150,2012-11-08 06:55:00
1:15 AM,37.4,32.0,81,29.83,10.0,SSE,16.1,24.2,N/A,,Clear,150,2012-11-08 07:15:00
1:35 AM,37.4,32.0,81,29.82,10.0,SSE,17.3,23.0,N/A,,Clear,150,2012-11-08 07:35:00
1:55 AM,37.4,32.0,81,29.83,10.0,SSE,16.1,-,N/A,,Clear,150,2012-11-08 07:55:00
2:15 AM,37.4,32.0,81,29.81,10.0,SSE,17.3,23.0,N/A,,Clear,150,2012-11-08 08:15:00
2:35 AM,37.4,32.0,81,29.81,10.0,SSE,16.1,-,N/A,,Clear,160,2012-11-08 08:35:00
2:55 AM,37.4,32.0,81,29.81,10.0,SSE,15.0,-,N/A,,Clear,160,2012-11-08 08:55:00
3:15 AM,37.4,32.0,81,29.81,10.0,SSE,13.8,-,N/A,,Clear,160,2012-11-08 09:15:00
3:35 AM,35.6,32.0,87,29.82,10.0,SSE,12.7,-,N/A,,Clear,160,2012-11-08 09:35:00
3:55 AM,35.6,32.0,87,29.84,10.0,SSE,12.7,-,N/A,,Clear,160,2012-11-08 09:55:00
4:15 AM,35.6,32.0,87,29.83,10.0,SSE,10.4,-,N/A,,Clear,160,2012-11-08 10:15:00
4:35 AM,35.6,32.0,87,29.83,10.0,SSE,9.2,-,N/A,,Clear,160,2012-11-08 10:35:00
4:55 AM,33.8,32.0,93,29.83,10.0,SSE,8.1,-,N/A,,Clear,150,2012-11-08 10:55:00
5:15 AM,33.8,32.0,93,29.84,10.0,SSE,6.9,-,N/A,,Clear,160,2012-11-08 11:15:00
5:35 AM,32.0,30.2,93,29.84,10.0,SSE,5.8,-,N/A,,Clear,150,2012-11-08 11:35:00
5:55 AM,32.0,30.2,93,29.84,10.0,SSE,6.9,-,N/A,,Clear,150,2012-11-08 11:55:00
6:15 AM,32.0,30.2,93,29.85,10.0,South,4.6,-,N/A,,Clear,170,2012-11-08 12:15:00
6:35 AM,32.0,30.2,93,29.86,10.0,SSE,10.4,-,N/A,,Clear,160,2012-11-08 12:35:00
6:55 AM,33.8,32.0,93,29.85,10.0,South,6.9,-,N/A,,Clear,170,2012-11-08 12:55:00
7:15 AM,33.8,32.0,93,29.86,10.0,SSE,6.9,-,N/A,,Clear,160,2012-11-08 13:15:00
7:35 AM,33.8,32.0,93,29.87,10.0,SSE,4.6,-,N/A,,Clear,160,2012-11-08 13:35:00
7:55 AM,33.8,32.0,93,29.86,10.0,SSE,8.1,-,N/A,,Clear,150,2012-11-08 13:55:00
8:15 AM,33.8,32.0,93,29.88,10.0,South,4.6,-,N/A,,Clear,170,2012-11-08 14:15:00
8:35 AM,33.8,32.0,93,29.89,10.0,South,5.8,-,N/A,,Clear,170,2012-11-08 14:35:00
8:55 AM,33.8,32.0,93,29.90,10.0,South,5.8,-,N/A,,Clear,180,2012-11-08 14:55:00
9:15 AM,35.6,32.0,87,29.91,10.0,SSW,5.8,-,N/A,,Clear,210,2012-11-08 15:15:00
9:35 AM,37.4,32.0,81,29.92,10.0,WSW,4.6,-,N/A,,Scattered Clouds,250,2012-11-08 15:35:00
9:55 AM,39.2,32.0,75,29.93,10.0,WNW,9.2,-,N/A,,Clear,290,2012-11-08 15:55:00
10:15 AM,42.8,33.8,70,29.92,10.0,NNW,11.5,-,N/A,,Clear,340,2012-11-08 16:15:00
10:35 AM,44.6,35.6,71,29.93,10.0,NNW,16.1,21.9,N/A,,Clear,340,2012-11-08 16:35:00
10:55 AM,44.6,35.6,71,29.94,10.0,NNW,20.7,26.5,N/A,,Mostly Cloudy,340,2012-11-08 16:55:00
11:15 AM,42.8,35.6,76,29.95,10.0,North,16.1,25.3,N/A,,Overcast,350,2012-11-08 17:15:00
11:35 AM,42.8,35.6,76,29.96,10.0,North,20.7,25.3,N/A,,Overcast,350,2012-11-08 17:35:00
11:55 AM,42.8,33.8,70,29.96,10.0,North,20.7,26.5,N/A,,Overcast,350,2012-11-08 17:55:00
12:15 PM,41.0,33.8,76,29.97,10.0,North,18.4,-,N/A,,Overcast,350,2012-11-08 18:15:00
12:55 PM,41.0,33.8,76,29.97,10.0,North,15.0,-,N/A,,Overcast,360,2012-11-08 18:55:00
1:15 PM,41.0,33.8,76,29.98,10.0,North,17.3,21.9,N/A,,Overcast,360,2012-11-08 19:15:00
1:35 PM,41.0,33.8,76,29.99,10.0,North,15.0,23.0,N/A,,Overcast,360,2012-11-08 19:35:00
1:55 PM,41.0,33.8,76,29.99,10.0,North,16.1,-,N/A,,Overcast,360,2012-11-08 19:55:00
2:15 PM,41.0,33.8,76,30.00,10.0,North,16.1,21.9,N/A,,Overcast,360,2012-11-08 20:15:00
2:35 PM,41.0,33.8,76,30.00,10.0,North,17.3,21.9,N/A,,Overcast,350,2012-11-08 20:35:00
2:55 PM,41.0,33.8,76,30.00,10.0,North,16.1,20.7,N/A,,Overcast,350,2012-11-08 20:55:00
3:15 PM,41.0,33.8,76,30.01,10.0,North,15.0,23.0,N/A,,Overcast,360,2012-11-08 21:15:00
3:35 PM,39.2,33.8,81,30.03,10.0,North,18.4,24.2,N/A,,Overcast,360,2012-11-08 21:35:00
3:55 PM,37.4,32.0,81,30.03,10.0,NNE,16.1,-,N/A,,Overcast,20,2012-11-08 21:55:00
4:15 PM,37.4,32.0,81,30.03,10.0,NNE,11.5,-,N/A,,Overcast,20,2012-11-08 22:15:00
4:35 PM,37.4,32.0,81,30.04,10.0,North,12.7,19.6,N/A,,Overcast,360,2012-11-08 22:35:00
4:55 PM,37.4,32.0,81,30.05,10.0,North,11.5,19.6,N/A,,Overcast,10,2012-11-08 22:55:00
5:15 PM,37.4,32.0,81,30.05,10.0,North,13.8,18.4,N/A,,Overcast,360,2012-11-08 23:15:00
5:35 PM,37.4,32.0,81,30.06,10.0,North,12.7,-,N/A,,Overcast,360,2012-11-08 23:35:00
5:55 PM,37.4,32.0,81,30.06,10.0,North,9.2,-,N/A,,Overcast,360,2012-11-08 23:55:00
6:15 PM,37.4,32.0,81,30.06,10.0,North,10.4,17.3,N/A,,Overcast,360,2012-11-09 00:15:00
6:35 PM,37.4,32.0,81,30.06,10.0,North,13.8,-,N/A,,Overcast,360,2012-11-09 00:35:00
6:55 PM,37.4,32.0,81,30.06,10.0,North,13.8,18.4,N/A,,Overcast,10,2012-11-09 00:55:00
7:15 PM,37.4,32.0,81,30.06,10.0,North,16.1,21.9,N/A,,Overcast,10,2012-11-09 01:15:00
7:35 PM,37.4,32.0,81,30.05,10.0,NNE,15.0,-,N/A,,Overcast,20,2012-11-09 01:35:00
7:55 PM,37.4,32.0,81,30.06,10.0,NNE,10.4,-,N/A,,Overcast,20,2012-11-09 01:55:00
8:15 PM,37.4,32.0,81,30.08,10.0,NNE,9.2,-,N/A,,Overcast,20,2012-11-09 02:15:00
8:35 PM,35.6,32.0,87,30.07,10.0,North,10.4,-,N/A,,Overcast,10,2012-11-09 02:35:00
8:55 PM,35.6,32.0,87,30.08,10.0,North,9.2,-,N/A,,Overcast,360,2012-11-09 02:55:00
9:15 PM,35.6,32.0,87,30.08,10.0,North,10.4,-,N/A,,Overcast,10,2012-11-09 03:15:00
9:35 PM,35.6,32.0,87,30.08,10.0,North,12.7,-,N/A,,Overcast,360,2012-11-09 03:35:00
9:55 PM,35.6,32.0,87,30.08,10.0,North,11.5,17.3,N/A,,Overcast,360,2012-11-09 03:55:00
10:15 PM,35.6,32.0,87,30.08,10.0,North,16.1,-,N/A,,Overcast,360,2012-11-09 04:15:00
10:35 PM,33.8,30.2,87,30.08,10.0,North,13.8,-,N/A,,Overcast,360,2012-11-09 04:35:00
10:55 PM,33.8,30.2,87,30.08,10.0,North,12.7,-,N/A,,Overcast,360,2012-11-09 04:55:00
11:15 PM,33.8,30.2,87,30.09,10.0,North,15.0,-,N/A,,Overcast,360,2012-11-09 05:15:00
11:35 PM,33.8,30.2,87,30.09,10.0,North,13.8,-,N/A,,Overcast,360,2012-11-09 05:35:00
11:55 PM,33.8,30.2,87,30.10,10.0,North,12.7,20.7,N/A,,Overcast,10,2012-11-09 05:55:00